#timestamp,LO_Frequency,Hit,StdDev 
1516071615.3,286046998.9,N
1516071635.1,286046996.7,N
1516071655.8,286046997.2,N
1516071675.7,286046995.0,N
1516071695.5,286046998.9,N
1516071715.4,286046999.3,N
1516071735.2,286046998.1,N
1516071755.0,286047002.5,N
1516071755.9,286047002.5,N
1516071775.8,286047002.3,N
1516071795.6,286047003.9,N
1516071815.4,286047001.7,N
1516071835.3,286047004.0,N
1516071855.1,286047003.2,N
1516071875.9,286047005.4,N
1516071895.7,286047005.7,N
1516071915.5,286047003.5,N
1516071935.4,286047003.0,N
1516071955.2,286047003.2,N
1516071975.0,286047001.8,N
1516071976.0,286047001.8,N
1516071995.8,286047003.8,N
1516072015.6,286047007.4,N
1516072035.5,286047005.0,N
1516072055.3,286047005.1,N
1516072075.1,286047005.6,N
1516072095.9,286047005.6,N
1516072115.7,286047001.3,N
1516072135.6,286047004.6,N
1516072155.4,286047005.0,N
1516072175.2,286047007.6,N
1516072195.1,286047005.6,N
1516072196.0,286047005.6,N
1516072215.8,286047004.1,N
1516072235.6,286047001.8,N
1516072255.5,286047001.3,N
1516072275.3,286047005.3,N
1516072295.2,286047004.8,N
1516072315.9,286047006.5,Y
1516072335.7,286047004.4,P
1516072355.6,286047003.7,P
1516072375.4,286047004.7,P
1516072395.3,286047007.5,Y
1516072415.1,286047000.3,P
1516072416.0,286047000.3,N
1516072435.8,286046998.2,N
1516072455.7,286046999.3,N
1516072475.5,286046997.2,N
1516072495.3,286046998.0,N
1516072515.2,286046996.1,N
1516072535.0,286046995.5,N
1516072535.9,286046995.5,N
1516072555.8,286046994.2,N
1516072575.6,286046994.8,N
1516072595.4,286046994.4,N
1516072615.3,286046993.4,N
1516072635.1,286046995.4,N
1516072655.9,286046993.3,N
1516072675.7,286046991.7,N
1516072725.6,286046995.0,E
1516072735.5,286046997.0,N
1516072755.3,286047000.4,P
1516072775.2,286047004.3,N
1516072795.9,286047002.4,N
1516072815.7,286047002.1,N
1516072835.6,286047001.7,N
1516072855.4,286047001.3,N
1516072875.2,286047004.9,N
1516072895.1,286047004.9,N
1516072896.0,286047004.9,N
1516072915.8,286047003.5,N
1516072935.7,286047004.5,N
1516072955.5,286047005.8,N
1516072975.3,286047005.1,N
1516072995.2,286047005.7,N
1516073015.0,286047005.1,N
1516073015.9,286047005.1,N
1516073035.7,286047005.2,N
1516073055.6,286047005.9,N
1516073075.4,286047007.6,Y
1516073095.3,286047006.9,P
1516073115.1,286047005.0,P
1516073135.8,286047003.0,N
1516073155.7,286047003.8,N
1516073175.5,286047003.9,N
1516073195.4,286047006.2,Y
1516073215.2,286047001.5,P
1516073235.0,286047002.2,N
1516073235.9,286047002.2,N
1516073255.8,286047003.8,Y
1516073275.6,286047000.7,P
1516073295.5,286046998.3,N
1516073315.3,286047000.1,N
1516073335.1,286047000.0,N
1516073355.9,286047001.9,N
1516073375.7,286047003.2,N
1516073395.6,286047003.5,N
1516073415.4,286047004.7,N
1516073435.2,286047006.3,Y
1516073455.1,286047005.9,P
1516073456.0,286047005.9,N
1516073475.8,286047004.8,N
1516073495.7,286047005.9,Y
1516073515.5,286046998.4,P
1516073535.3,286046998.5,N
1516073555.2,286046996.5,N
1516073575.9,286046999.1,N
1516073595.7,286046998.0,N
1516073615.6,286046997.1,N
1516073635.4,286046995.7,N
1516073655.3,286046993.7,N
1516073675.1,286046997.1,N
1516073676.0,286046997.1,N
1516073695.8,286046997.4,N
1516073715.7,286046998.4,N
1516073735.5,286046997.1,N
1516073755.3,286046998.1,N
1516073775.2,286046998.4,N
1516073795.0,286046999.8,N
1516073795.9,286046999.8,N
1516073815.8,286047002.8,N
1516073835.6,286047001.2,N
1516073855.4,286046999.1,N
1516073875.3,286047000.9,N
1516073895.1,286047000.3,N
1516073915.8,286046999.3,N
1516073935.7,286046998.9,N
1516073955.5,286046996.7,N
1516073975.4,286046996.5,N
1516073995.2,286046995.2,N
1516074015.0,286046994.0,N
1516074015.9,286046994.0,N
1516074035.8,286046991.8,Y
1516074055.6,286046995.5,P
1516074075.4,286046995.6,P
1516074095.3,286046996.7,N
1516074115.1,286046999.0,N
1516074135.9,286046998.2,N
1516074155.7,286046996.7,N
1516074175.5,286046998.8,N
1516074195.4,286046998.3,N
1516074215.2,286046998.7,N
1516074235.0,286047000.5,N
1516074235.9,286047000.5,N
1516074255.8,286047000.1,N
1516074275.6,286047000.2,N
1516074295.5,286046999.9,N
1516074315.3,286047000.2,N
1516074335.1,286047002.7,N
1516074355.9,286047002.6,N
1516074375.7,286047002.4,N
1516074395.5,286047005.8,N
1516074415.4,286047005.8,N
1516074435.2,286047003.0,N
1516074455.1,286047002.9,N
1516074456.0,286047002.9,N
1516074475.8,286047005.9,N
1516074495.6,286047005.7,N
1516074515.5,286047004.1,N
1516074535.3,286047003.2,N
1516074555.1,286047002.0,N
1516074575.9,286047000.2,N
1516074595.7,286047001.9,N
1516074615.6,286047002.4,N
1516074635.4,286047001.0,N
1516074655.2,286046998.2,N
1516074675.1,286046997.3,N
1516074676.0,286046997.3,N
1516074695.8,286046999.5,N
1516074715.6,286046998.3,N
1516074735.5,286047002.4,N
1516074755.3,286047000.6,N
1516074775.2,286047001.6,N
1516074795.9,286047000.4,N
1516074815.7,286047002.5,N
1516074835.6,286047002.4,N
1516074855.4,286046999.8,N
1516074875.2,286047001.6,N
1516074895.1,286047000.5,N
1516074896.0,286047000.5,N
1516074915.8,286046998.6,N
1516074935.7,286046998.5,N
1516074955.5,286046998.3,N
1516074975.3,286046998.7,N
1516074995.2,286047001.1,N
1516075015.0,286046996.6,N
1516075015.9,286046996.6,N
1516075035.7,286046995.1,N
1516075055.6,286046999.2,N
1516075075.4,286046997.5,N
1516075095.3,286046996.3,N
1516075115.1,286046993.8,Y
1516075135.8,286046997.0,P
1516075155.7,286046997.7,N
1516075175.5,286046995.4,P
1516075195.4,286046998.0,N
